Tracking 18852 objects as of 24-Nov-2017
HD Live streaming from Space Station
objects crossing your sky now

LES 5

Track LES 5 now!
LES 5 is classified as:


NORAD ID: 2866
Int'l Code: 1967-066E
Perigee: 33,173.6 km
Apogee: 33,642.7 km
Inclination: 4.8 °
Period: 1,316.0 minutes
Semi major axis: 39779 km
RCS: 2.6184 m2 (large)
Launch date: July 1, 1967
Source: United States (US)
Launch site: AIR FORCE EASTERN TEST RANGE (AFETR)
aabbcc
Your satellite tracking list
Your tracking list is empty




NASA's NSSDC Master Catalog

Two Line Element Set (TLE):
1  2866U 67066E   17327.37980749 -.00000104 +00000-0 +00000-0 0  9990
2  2866 004.7792 291.7262 0058963 319.4724 190.7000 01.09425734096808
Source of the keplerian elements: AFSPC